TimePDT,TemperatureF,Dew PointF,Humidity,Sea Level PressureIn,VisibilityMPH,Wind Direction,Wind SpeedMPH,Gust SpeedMPH,PrecipitationIn,Events,Conditions,WindDirDegrees,DateUTC
12:00 AM,59.0,44.6,59,29.94,9.0,South,10.4,23.0,N/A,,Clear,180,2012-10-10 07:00:00
1:00 AM,57.2,42.8,59,29.95,9.0,SSW,3.5,-,N/A,,Clear,200,2012-10-10 08:00:00
2:00 AM,55,43,55,29.95,9,SSE,3.5,,,,,160,2012-10-10 09:00:00
2:00 AM,55.4,42.8,63,29.95,9.0,South,2.3,-,N/A,,Clear,170,2012-10-10 09:00:00
3:00 AM,53.6,42.8,67,29.94,9.0,Calm,Calm,-,N/A,,Clear,0,2012-10-10 10:00:00
4:00 AM,51.8,42.8,71,29.96,9.0,North,4.6,-,N/A,,Clear,360,2012-10-10 11:00:00
5:00 AM,48,42,71,29.97,9,North,2.3,,,,,10,2012-10-10 12:00:00
5:00 AM,48.2,41.0,76,29.97,9.0,NNE,2.3,-,N/A,,Clear,20,2012-10-10 12:00:00
6:00 AM,48.2,41.0,76,29.98,9.0,Calm,Calm,-,N/A,,Clear,0,2012-10-10 13:00:00
7:00 AM,46.4,41.0,81,29.99,9.0,SSE,2.3,-,N/A,,Clear,160,2012-10-10 14:00:00
8:00 AM,44,40,82,30.01,9,Calm,Calm,,,,,,2012-10-10 15:00:00
8:00 AM,42.8,41.0,93,30.01,9.0,Calm,Calm,-,N/A,,Clear,0,2012-10-10 15:00:00
9:00 AM,44.6,41.0,87,30.01,9.0,SSE,4.6,-,N/A,,Clear,160,2012-10-10 16:00:00
10:00 AM,51.8,44.6,76,30.01,9.0,SSE,3.5,-,N/A,,Clear,160,2012-10-10 17:00:00
11:00 AM,57,44,53,29.99,9,South,4.6,,,,,180,2012-10-10 18:00:00
11:00 AM,57.2,44.6,63,29.99,9.0,South,4.6,-,N/A,,Clear,170,2012-10-10 18:00:00
12:00 PM,62.6,44.6,52,29.96,9.0,South,4.6,-,N/A,,Clear,180,2012-10-10 19:00:00
1:00 PM,66.2,44.6,46,29.94,9.0,SSW,3.5,-,N/A,,Clear,200,2012-10-10 20:00:00
2:00 PM,68,45,32,29.90,9,WSW,2.3,,,,,250,2012-10-10 21:00:00
2:00 PM,68.0,44.6,43,29.90,9.0,SW,2.3,-,N/A,,Clear,230,2012-10-10 21:00:00
3:00 PM,73.4,44.6,36,29.87,9.0,South,5.8,-,N/A,,Clear,190,2012-10-10 22:00:00
4:00 PM,73.4,44.6,36,29.86,9.0,Calm,Calm,-,N/A,,Clear,0,2012-10-10 23:00:00
5:00 PM,68,44,30,29.86,9,Calm,Calm,,,,,,2012-10-11 00:00:00
5:00 PM,68.0,42.8,40,29.86,9.0,Calm,Calm,-,N/A,,Clear,0,2012-10-11 00:00:00
6:00 PM,62.6,44.6,52,29.87,9.0,North,2.3,-,N/A,,Clear,360,2012-10-11 01:00:00
7:00 PM,59.0,42.8,55,29.90,9.0,North,2.3,-,N/A,,Clear,10,2012-10-11 02:00:00
8:00 PM,57,43,48,29.93,9,SSE,3.5,,,,,160,2012-10-11 03:00:00
9:00 PM,53.6,42.8,67,29.94,9.0,NNE,3.5,-,N/A,,Clear,30,2012-10-11 04:00:00
10:00 PM,53.6,42.8,67,29.96,9.0,Calm,Calm,-,N/A,,Clear,0,2012-10-11 05:00:00